This is the latest recevied weather packets stored in our database for station/object NT9G. If no packets are shown the sender has not sent any weather packets the latest 10 day(s).
| Time | Temp. | Humidity | Pressure | Rain* | Wind** | Luminosity | Snow |
|---|---|---|---|---|---|---|---|
| 1777301648 | 15.56° C | 97% | 1006.2 hPa | 0 mm | - | - | - |
| 1777301348 | 15.56° C | 95% | 1006.6 hPa | 0 mm | - | - | - |
| 1777300146 | 16.11° C | 88% | 1006.5 hPa | 0 mm | - | - | - |
| 1777299846 | 16.11° C | 85% | 1007.2 hPa | 0 mm | - | - | - |
| 1777299546 | 16.11° C | 80% | 1007.8 hPa | 0 mm | - | - | - |
| 1777298945 | 16.67° C | 74% | 1008.2 hPa | 0 mm | - | - | - |
| 1777298645 | 16.67° C | 72% | 1008.2 hPa | 0 mm | - | - | - |
| 1777298345 | 16.67° C | 69% | 1008.4 hPa | 0 mm | - | - | - |
| 1777298045 | 16.67° C | 69% | 1008.5 hPa | 0 mm | - | - | - |
| 1777297744 | 16.67° C | 68% | 1008.8 hPa | 0 mm | - | - | - |
| 1777297144 | 16.67° C | 68% | 1008.8 hPa | 0 mm | - | - | - |
| 1777296843 | 16.67° C | 68% | 1008.8 hPa | 0 mm | - | - | - |
| 1777296543 | 16.67° C | 67% | 1008.6 hPa | 0 mm | - | - | - |
| 1777295642 | 16.67° C | 67% | 1008.3 hPa | 0 mm | - | - | - |
| 1777295342 | 16.67° C | 67% | 1008.3 hPa | 0 mm | - | - | - |
| 1777295042 | 16.67° C | 67% | 1008 hPa | 0 mm | - | - | - |
| 1777294741 | 16.67° C | 67% | 1007.8 hPa | 0 mm | - | - | - |
| 1777294441 | 16.67° C | 67% | 1008 hPa | 0 mm | - | - | - |
| 1777293841 | 16.67° C | 67% | 1008.3 hPa | 0 mm | - | - | - |
| 1777293540 | 16.67° C | 67% | 1008.6 hPa | 0 mm | - | - | - |
| 1777293240 | 16.11° C | 67% | 1008.6 hPa | 0 mm | - | - | - |
| 1777292940 | 16.11° C | 67% | 1008.9 hPa | 0 mm | - | - | - |
| 1777292639 | 16.11° C | 67% | 1008.9 hPa | 0 mm | - | - | - |
| 1777292339 | 16.11° C | 67% | 1008.7 hPa | 0 mm | - | - | - |
| 1777292039 | 16.11° C | 67% | 1008.5 hPa | 0 mm | - | - | - |
* Rain since midnight (hover to see other rain measurements)
** Current wind speed in m/s (hover to see current wind gust speed)